Regional Weather Roundup
Issued by NWS

Home | Current Version | Previous Version | Graphics & Text | Print | Product List | Glossary On
Versions: 1 2 3 4 5 6 7 8 9 10 11 12 13 14 15 16 17 18 19 20 21 22 23 24 25 26 27 28 29 30 31 32 33 34 35 36 37 38 39 40 41 42 43 44 45 46 47 48 49 50
000
ASUS43 KFSD 200902
RWRSD

WEATHER ROUNDUP FOR SOUTH DAKOTA
NATIONAL WEATHER SERVICE SIOUX FALLS SD
400 AM CDT SUN APR 20 2014

NOTE: "FAIR" INDICATES FEW OR NO CLOUDS BELOW 12,000 FEET WITH NO
SIGNIFICANT WEATHER AND/OR OBSTRUCTIONS TO VISIBILITY.


SDZ001>005-009-010-012>017-201000-
NORTHWEST AND NORTH CENTRAL SOUTH DAKOTA

CITY           SKY/WX    TMP DP  RH WIND       PRES   REMARKS
FAITH            N/A     39  28  64 S16       29.95F
MOBRIDGE       CLEAR     38  29  70 SE6       29.96S
$$

SDZ012>016-024>037-041>051-057-063-072>074-201000-
SOUTHWEST AND SOUTH CENTRAL SOUTH DAKOTA

CITY           SKY/WX    TMP DP  RH WIND       PRES   REMARKS
RAPID CTY ARPT CLEAR     42  29  59 S7        29.94F
PIERRE         CLEAR     40  26  57 NE5       29.97F
CUSTER         CLEAR     35  26  69 NW6       30.00F
ELLSWORTH AFB  CLEAR     47  30  52 S10       29.93F
PHILIP         PTCLDY    36  28  73 CALM      29.97F
PINE RIDGE     CLEAR     53  36  52 SE7       29.97F
WINNER         FAIR      45  21  38 S7        30.01R
$$

SDZ004>011-016>023-039-040-201000-
NORTHEAST SOUTH DAKOTA

CITY           SKY/WX    TMP DP  RH WIND       PRES   REMARKS
ABERDEEN       CLEAR     36  31  82 NE7       30.01S
WATERTOWN      PTCLDY    37  29  72 NE5       30.02R
SISSETON         N/A     40  35  83 NW5       30.03S
$$

SDZ017-020-022-023-036>040-048>070-201000-
SOUTHEAST SOUTH DAKOTA

CITY           SKY/WX    TMP DP  RH WIND       PRES   REMARKS
SIOUX FALLS    CLOUDY    52  39  61 NE5       30.00R
HURON          CLEAR     37  31  78 CALM      30.00R
CHAMBERLAIN      N/A     42  27  55 SE5       30.00S
MITCHELL       CLEAR     39  28  64 CALM      30.02R
YANKTON        PTCLDY    54  37  54 N5        30.00R
$$

ABBREVIATIONS USED IN REMARKS
   TC - TEMPERATURE IN CELSIUS
  WCI - WIND CHILL INDEX
   HX - HEAT INDEX
  VSB - VISIBILITY




USA.gov is the U.S. government's official web portal to all federal, state and local government web resources and services.